Year,Month,Day,Hour,Minute,Value (Times are PST for temperature in C)
2012,03,24,00,00,0.90
2012,03,24,00,01,0.90
2012,03,24,00,02,1.00
2012,03,24,00,03,1.10
2012,03,24,00,04,1.10
2012,03,24,00,05,1.20
2012,03,24,00,06,1.30
2012,03,24,00,07,1.40
2012,03,24,00,08,1.50
2012,03,24,00,09,1.60
2012,03,24,00,10,1.60
2012,03,24,00,11,1.60
2012,03,24,00,12,1.60
2012,03,24,00,13,1.60
2012,03,24,00,14,1.60
2012,03,24,00,15,1.50
2012,03,24,00,16,1.50
2012,03,24,00,17,1.60
2012,03,24,00,18,1.60
2012,03,24,00,19,1.60
2012,03,24,00,20,1.60
2012,03,24,00,21,1.60
2012,03,24,00,22,1.60
2012,03,24,00,23,1.70
2012,03,24,00,24,1.70
2012,03,24,00,25,1.70
2012,03,24,00,26,1.70
2012,03,24,00,27,1.70
2012,03,24,00,28,1.70
2012,03,24,00,29,1.80
2012,03,24,00,30,1.80
2012,03,24,00,31,1.80
2012,03,24,00,32,1.90
2012,03,24,00,33,2.00
2012,03,24,00,34,2.10
2012,03,24,00,35,2.20
2012,03,24,00,36,2.30
2012,03,24,00,37,2.30
2012,03,24,00,38,2.40
2012,03,24,00,39,2.50
2012,03,24,00,40,2.50
2012,03,24,00,41,2.60
2012,03,24,00,42,2.60
2012,03,24,00,43,2.50
2012,03,24,00,44,2.40
2012,03,24,00,45,2.30
2012,03,24,00,46,2.30
2012,03,24,00,47,2.20
2012,03,24,00,48,2.20
2012,03,24,00,49,2.10
2012,03,24,00,50,2.10
2012,03,24,00,51,2.00
2012,03,24,00,52,1.90
2012,03,24,00,53,1.90
2012,03,24,00,54,1.90
2012,03,24,00,55,2.00
2012,03,24,00,56,2.00
2012,03,24,00,57,2.10
2012,03,24,00,58,2.10
2012,03,24,00,59,2.10
2012,03,24,01,00,2.20
2012,03,24,01,01,2.20
2012,03,24,01,02,2.20
2012,03,24,01,03,2.20
2012,03,24,01,04,2.20
2012,03,24,01,05,2.30
2012,03,24,01,06,2.30
2012,03,24,01,07,2.30
2012,03,24,01,08,2.30
2012,03,24,01,09,2.40
2012,03,24,01,10,2.40
2012,03,24,01,11,2.40
2012,03,24,01,12,2.40
2012,03,24,01,13,2.40
2012,03,24,01,14,2.40
2012,03,24,01,15,2.40
2012,03,24,01,16,2.40
2012,03,24,01,17,2.30
2012,03,24,01,18,2.30
2012,03,24,01,19,2.20
2012,03,24,01,20,2.10
2012,03,24,01,21,2.00
2012,03,24,01,22,1.90
2012,03,24,01,23,1.90
2012,03,24,01,24,1.80
2012,03,24,01,25,1.80
2012,03,24,01,26,1.80
2012,03,24,01,27,1.90
2012,03,24,01,28,1.90
2012,03,24,01,29,1.90
2012,03,24,01,30,2.00
2012,03,24,01,31,2.00
2012,03,24,01,32,1.90
2012,03,24,01,33,1.90
2012,03,24,01,34,1.90
2012,03,24,01,35,1.90
2012,03,24,01,36,1.90
2012,03,24,01,37,1.90
2012,03,24,01,38,1.90
2012,03,24,01,39,1.90
2012,03,24,01,40,1.90
2012,03,24,01,41,1.90
2012,03,24,01,42,1.90
2012,03,24,01,43,1.90
2012,03,24,01,44,1.80
2012,03,24,01,45,1.80
2012,03,24,01,46,1.80
2012,03,24,01,47,1.80
2012,03,24,01,48,1.80
2012,03,24,01,49,1.80
2012,03,24,01,50,1.80
2012,03,24,01,51,1.80
2012,03,24,01,52,1.80
2012,03,24,01,53,1.80
2012,03,24,01,54,1.80
2012,03,24,01,55,1.80
2012,03,24,01,56,1.80
2012,03,24,01,57,1.80
2012,03,24,01,58,1.80
2012,03,24,01,59,1.80
2012,03,24,02,00,1.80
2012,03,24,02,01,1.80
2012,03,24,02,02,1.80
2012,03,24,02,03,1.80
2012,03,24,02,04,1.80
2012,03,24,02,05,1.80
2012,03,24,02,06,1.80
2012,03,24,02,07,1.80
2012,03,24,02,08,1.80
2012,03,24,02,09,1.70
2012,03,24,02,10,1.70
2012,03,24,02,11,1.70
2012,03,24,02,12,1.60
2012,03,24,02,13,1.50
2012,03,24,02,14,1.50
2012,03,24,02,15,1.40
2012,03,24,02,16,1.40
2012,03,24,02,17,1.40
2012,03,24,02,18,1.40
2012,03,24,02,19,1.30
2012,03,24,02,20,1.30
2012,03,24,02,21,1.20
2012,03,24,02,22,1.20
2012,03,24,02,23,1.20
2012,03,24,02,24,1.20
2012,03,24,02,25,1.20
2012,03,24,02,26,1.10
2012,03,24,02,27,1.10
2012,03,24,02,28,1.10
2012,03,24,02,29,1.00
2012,03,24,02,30,1.00
2012,03,24,02,31,1.00
2012,03,24,02,32,1.00
2012,03,24,02,33,0.90
2012,03,24,02,34,0.90
2012,03,24,02,35,0.90
2012,03,24,02,36,0.90
2012,03,24,02,37,0.90
2012,03,24,02,38,0.90
2012,03,24,02,39,1.00
2012,03,24,02,40,1.10
2012,03,24,02,41,1.20
2012,03,24,02,42,1.40
2012,03,24,02,43,1.50
2012,03,24,02,44,1.60
2012,03,24,02,45,1.70
2012,03,24,02,46,1.70
2012,03,24,02,47,1.80
2012,03,24,02,48,1.80
2012,03,24,02,49,1.80
2012,03,24,02,50,1.80
2012,03,24,02,51,1.90
2012,03,24,02,52,2.00
2012,03,24,02,53,2.10
2012,03,24,02,54,2.20
2012,03,24,02,55,2.20
2012,03,24,02,56,2.30
2012,03,24,02,57,2.30
2012,03,24,02,58,2.40
2012,03,24,02,59,2.50
2012,03,24,03,00,2.60
2012,03,24,03,01,2.70
2012,03,24,03,02,2.80
2012,03,24,03,03,2.90
2012,03,24,03,04,2.90
2012,03,24,03,05,3.00
2012,03,24,03,06,3.00
2012,03,24,03,07,3.10
2012,03,24,03,08,3.10
2012,03,24,03,09,3.10
2012,03,24,03,10,3.10
2012,03,24,03,11,3.10
2012,03,24,03,12,3.20
2012,03,24,03,13,3.20
2012,03,24,03,14,3.20
2012,03,24,03,15,3.20
2012,03,24,03,16,3.20
2012,03,24,03,17,3.20
2012,03,24,03,18,3.20
2012,03,24,03,19,3.20
2012,03,24,03,20,3.30
2012,03,24,03,21,3.30
2012,03,24,03,22,3.30
2012,03,24,03,23,3.30
2012,03,24,03,24,3.30
2012,03,24,03,25,3.30
2012,03,24,03,26,3.30
2012,03,24,03,27,3.40
2012,03,24,03,28,3.40
2012,03,24,03,29,3.40
2012,03,24,03,30,3.50
2012,03,24,03,31,3.50
2012,03,24,03,32,3.50
2012,03,24,03,33,3.50
2012,03,24,03,34,3.50
2012,03,24,03,35,3.60
2012,03,24,03,36,3.60
2012,03,24,03,37,3.60
2012,03,24,03,38,3.60
2012,03,24,03,39,3.60
2012,03,24,03,40,3.60
2012,03,24,03,41,3.60
2012,03,24,03,42,3.60
2012,03,24,03,43,3.60
2012,03,24,03,44,3.60
2012,03,24,03,45,3.60
2012,03,24,03,46,3.60
2012,03,24,03,47,3.60
2012,03,24,03,48,3.60
2012,03,24,03,49,3.60
2012,03,24,03,50,3.60
2012,03,24,03,51,3.50
2012,03,24,03,52,3.50
2012,03,24,03,53,3.50
2012,03,24,03,54,3.40
2012,03,24,03,55,3.40
2012,03,24,03,56,3.40
2012,03,24,03,57,3.40
2012,03,24,03,58,3.40
2012,03,24,03,59,3.40
2012,03,24,04,00,3.40
2012,03,24,04,01,3.40
2012,03,24,04,02,3.30
2012,03,24,04,03,3.30
2012,03,24,04,04,3.30
2012,03,24,04,05,3.30
2012,03,24,04,06,3.30
2012,03,24,04,07,3.30
2012,03,24,04,08,3.30
2012,03,24,04,09,3.30
2012,03,24,04,10,3.40
2012,03,24,04,11,3.40
2012,03,24,04,12,3.40
2012,03,24,04,13,3.40
2012,03,24,04,14,3.40
2012,03,24,04,15,3.50
2012,03,24,04,16,3.50
2012,03,24,04,17,3.50
2012,03,24,04,18,3.40
2012,03,24,04,19,3.40
2012,03,24,04,20,3.40
2012,03,24,04,21,3.40
2012,03,24,04,22,3.50
2012,03,24,04,23,3.50
2012,03,24,04,24,3.40
2012,03,24,04,25,3.40
2012,03,24,04,26,3.40
2012,03,24,04,27,3.40
2012,03,24,04,28,3.40
2012,03,24,04,29,3.40
2012,03,24,04,30,3.40
2012,03,24,04,31,3.30
2012,03,24,04,32,3.30
2012,03,24,04,33,3.30
2012,03,24,04,34,3.30
2012,03,24,04,35,3.30
2012,03,24,04,36,3.30
2012,03,24,04,37,3.30
2012,03,24,04,38,3.30
2012,03,24,04,39,3.30
2012,03,24,04,40,3.30
2012,03,24,04,41,3.40
2012,03,24,04,42,3.40
2012,03,24,04,43,3.40
2012,03,24,04,44,3.40
2012,03,24,04,45,3.40
2012,03,24,04,46,3.40
2012,03,24,04,47,3.40
2012,03,24,04,48,3.40
2012,03,24,04,49,3.50
2012,03,24,04,50,3.50
2012,03,24,04,51,3.50
2012,03,24,04,52,3.50
2012,03,24,04,53,3.50
2012,03,24,04,54,3.50
2012,03,24,04,55,3.50
2012,03,24,04,56,3.50
2012,03,24,04,57,3.40
2012,03,24,04,58,3.40
2012,03,24,04,59,3.40
2012,03,24,05,00,3.40
2012,03,24,05,01,3.40
2012,03,24,05,02,3.40
2012,03,24,05,03,3.40
2012,03,24,05,04,3.30
2012,03,24,05,05,3.30
2012,03,24,05,06,3.30
2012,03,24,05,07,3.30
2012,03,24,05,08,3.30
2012,03,24,05,09,3.30
2012,03,24,05,10,3.30
2012,03,24,05,11,3.30
2012,03,24,05,12,3.30
2012,03,24,05,13,3.30
2012,03,24,05,14,3.30
2012,03,24,05,15,3.30
2012,03,24,05,16,3.30
2012,03,24,05,17,3.20
2012,03,24,05,18,3.20
2012,03,24,05,19,3.20
2012,03,24,05,20,3.20
2012,03,24,05,21,3.20
2012,03,24,05,22,3.20
2012,03,24,05,23,3.20
2012,03,24,05,24,3.20
2012,03,24,05,25,3.20
2012,03,24,05,26,3.20
2012,03,24,05,27,3.20
2012,03,24,05,28,3.20
2012,03,24,05,29,3.20
2012,03,24,05,30,3.20
2012,03,24,05,31,3.20
2012,03,24,05,32,3.20
2012,03,24,05,33,3.20
2012,03,24,05,34,3.20
2012,03,24,05,35,3.10
2012,03,24,05,36,3.10
2012,03,24,05,37,3.10
2012,03,24,05,38,3.10
2012,03,24,05,39,3.10
2012,03,24,05,40,3.10
2012,03,24,05,41,3.10
2012,03,24,05,42,3.10
2012,03,24,05,43,3.10
2012,03,24,05,44,3.10
2012,03,24,05,45,3.10
2012,03,24,05,46,3.10
2012,03,24,05,47,3.10
2012,03,24,05,48,3.10
2012,03,24,05,49,3.10
2012,03,24,05,50,3.10
2012,03,24,05,51,3.10
2012,03,24,05,52,3.10
2012,03,24,05,53,3.10
2012,03,24,05,54,3.10
2012,03,24,05,55,3.10
2012,03,24,05,56,3.10
2012,03,24,05,57,3.10
2012,03,24,05,58,3.10
2012,03,24,05,59,3.10
2012,03,24,06,00,3.10
2012,03,24,06,01,3.10
2012,03,24,06,02,3.10
2012,03,24,06,03,3.10
2012,03,24,06,04,3.20
2012,03,24,06,05,3.20
2012,03,24,06,06,3.20
2012,03,24,06,07,3.20
2012,03,24,06,08,3.20
2012,03,24,06,09,3.20
2012,03,24,06,10,3.20
2012,03,24,06,11,3.20
2012,03,24,06,12,3.20
2012,03,24,06,13,3.20
2012,03,24,06,14,3.20
2012,03,24,06,15,3.10
2012,03,24,06,16,3.10
2012,03,24,06,17,3.10
2012,03,24,06,18,3.10
2012,03,24,06,19,3.10
2012,03,24,06,20,3.10
2012,03,24,06,21,3.10
2012,03,24,06,22,3.10
2012,03,24,06,23,3.10
2012,03,24,06,24,3.10
2012,03,24,06,25,3.10
2012,03,24,06,26,3.10
2012,03,24,06,27,3.10
2012,03,24,06,28,3.00
2012,03,24,06,29,3.00
2012,03,24,06,30,3.00
2012,03,24,06,31,3.00
2012,03,24,06,32,2.90
2012,03,24,06,33,2.90
2012,03,24,06,34,2.90
2012,03,24,06,35,2.90
2012,03,24,06,36,2.90
2012,03,24,06,37,2.90
2012,03,24,06,38,2.90
2012,03,24,06,39,2.90
2012,03,24,06,40,2.90
2012,03,24,06,41,2.90
2012,03,24,06,42,2.90
2012,03,24,06,43,2.90
2012,03,24,06,44,2.90
2012,03,24,06,45,2.90
2012,03,24,06,46,3.00
2012,03,24,06,47,3.00
2012,03,24,06,48,3.00
2012,03,24,06,49,3.00
2012,03,24,06,50,3.10
2012,03,24,06,51,3.10
2012,03,24,06,52,3.10
2012,03,24,06,53,3.10
2012,03,24,06,54,3.10
2012,03,24,06,55,3.10
2012,03,24,06,56,3.10
2012,03,24,06,57,3.10
2012,03,24,06,58,3.20
2012,03,24,06,59,3.20
2012,03,24,07,00,3.20
2012,03,24,07,01,3.20
2012,03,24,07,02,3.20
2012,03,24,07,03,3.30
2012,03,24,07,04,3.30
2012,03,24,07,05,3.30
2012,03,24,07,06,3.30
2012,03,24,07,07,3.30
2012,03,24,07,08,3.30
2012,03,24,07,09,3.40
2012,03,24,07,10,3.40
2012,03,24,07,11,3.40
2012,03,24,07,12,3.40
2012,03,24,07,13,3.40
2012,03,24,07,14,3.40
2012,03,24,07,15,3.40
2012,03,24,07,16,3.40
2012,03,24,07,17,3.40
2012,03,24,07,18,3.40
2012,03,24,07,19,3.40
2012,03,24,07,20,3.40
2012,03,24,07,21,3.40
2012,03,24,07,22,3.40
2012,03,24,07,23,3.40
2012,03,24,07,24,3.40
2012,03,24,07,25,3.40
2012,03,24,07,26,3.40
2012,03,24,07,27,3.40
2012,03,24,07,28,3.40
2012,03,24,07,29,3.40
2012,03,24,07,30,3.40
2012,03,24,07,31,3.40
2012,03,24,07,32,3.40
2012,03,24,07,33,3.40
2012,03,24,07,34,3.50
2012,03,24,07,35,3.50
2012,03,24,07,36,3.50
2012,03,24,07,37,3.50
2012,03,24,07,38,3.60
2012,03,24,07,39,3.60
2012,03,24,07,40,3.60
2012,03,24,07,41,3.60
2012,03,24,07,42,3.60
2012,03,24,07,43,3.60
2012,03,24,07,44,3.70
2012,03,24,07,45,3.70
2012,03,24,07,46,3.70
2012,03,24,07,47,3.70
2012,03,24,07,48,3.70
2012,03,24,07,49,3.80
2012,03,24,07,50,3.80
2012,03,24,07,51,3.90
2012,03,24,07,52,3.90
2012,03,24,07,53,3.90
2012,03,24,07,54,3.90
2012,03,24,07,55,4.00
2012,03,24,07,56,4.00
2012,03,24,07,57,4.10
2012,03,24,07,58,4.10
2012,03,24,07,59,4.10
2012,03,24,08,00,4.10
2012,03,24,08,01,4.20
2012,03,24,08,02,4.20
2012,03,24,08,03,4.20
2012,03,24,08,04,4.20
2012,03,24,08,05,4.20
2012,03,24,08,06,4.30
2012,03,24,08,07,4.30
2012,03,24,08,08,4.40
2012,03,24,08,09,4.40
2012,03,24,08,10,4.40
2012,03,24,08,11,4.40
2012,03,24,08,12,4.40
2012,03,24,08,13,4.40
2012,03,24,08,14,4.40
2012,03,24,08,15,4.40
2012,03,24,08,16,4.40
2012,03,24,08,17,4.40
2012,03,24,08,18,4.40
2012,03,24,08,19,4.50
2012,03,24,08,20,4.60
2012,03,24,08,21,4.70
2012,03,24,08,22,4.70
2012,03,24,08,23,4.80
2012,03,24,08,24,4.80
2012,03,24,08,25,4.80
2012,03,24,08,26,4.90
2012,03,24,08,27,4.90
2012,03,24,08,28,5.00
2012,03,24,08,29,5.00
2012,03,24,08,30,5.00
2012,03,24,08,31,5.10
2012,03,24,08,32,5.10
2012,03,24,08,33,5.10
2012,03,24,08,34,5.10
2012,03,24,08,35,5.10
2012,03,24,08,36,5.10
2012,03,24,08,37,5.20
2012,03,24,08,38,5.20
2012,03,24,08,39,5.20
2012,03,24,08,40,5.20
2012,03,24,08,41,5.20
2012,03,24,08,42,5.20
2012,03,24,08,43,5.20
2012,03,24,08,44,5.20
2012,03,24,08,45,5.20
2012,03,24,08,46,5.30
2012,03,24,08,47,5.30
2012,03,24,08,48,5.30
2012,03,24,08,49,5.30
2012,03,24,08,50,5.30
2012,03,24,08,51,5.30
2012,03,24,08,52,5.30
2012,03,24,08,53,5.30
2012,03,24,08,54,5.40
2012,03,24,08,55,5.40
2012,03,24,08,56,5.40
2012,03,24,08,57,5.40
2012,03,24,08,58,5.40
2012,03,24,08,59,5.40
2012,03,24,09,00,5.40
2012,03,24,09,01,5.40
2012,03,24,09,02,5.40
2012,03,24,09,03,5.40
2012,03,24,09,04,5.40
2012,03,24,09,05,5.40
2012,03,24,09,06,5.50
2012,03,24,09,07,5.50
2012,03,24,09,08,5.50
2012,03,24,09,09,5.60
2012,03,24,09,10,5.60
2012,03,24,09,11,5.60
2012,03,24,09,12,5.70
2012,03,24,09,13,5.70
2012,03,24,09,14,5.70
2012,03,24,09,15,5.70
2012,03,24,09,16,5.70
2012,03,24,09,17,5.70
2012,03,24,09,18,5.70
2012,03,24,09,19,5.70
2012,03,24,09,20,5.70
2012,03,24,09,21,5.70
2012,03,24,09,22,5.70
2012,03,24,09,23,5.70
2012,03,24,09,24,5.70
2012,03,24,09,25,5.70
2012,03,24,09,26,5.70
2012,03,24,09,27,5.70
2012,03,24,09,28,5.70
2012,03,24,09,29,5.80
2012,03,24,09,30,5.80
2012,03,24,09,31,5.80
2012,03,24,09,32,5.80
2012,03,24,09,33,5.80
2012,03,24,09,34,5.80
2012,03,24,09,35,5.80
2012,03,24,09,36,5.80
2012,03,24,09,37,5.80
2012,03,24,09,38,5.80
2012,03,24,09,39,5.80
2012,03,24,09,40,5.80
2012,03,24,09,41,5.80
2012,03,24,09,42,5.80
2012,03,24,09,43,5.80
2012,03,24,09,44,5.80
2012,03,24,09,45,5.80
2012,03,24,09,46,5.80
2012,03,24,09,47,5.80
2012,03,24,09,48,5.90
2012,03,24,09,49,5.90
2012,03,24,09,50,5.90
2012,03,24,09,51,5.90
2012,03,24,09,52,5.90
2012,03,24,09,53,5.90
2012,03,24,09,54,6.00
2012,03,24,09,55,6.00
2012,03,24,09,56,6.00
2012,03,24,09,57,6.00
2012,03,24,09,58,6.00
2012,03,24,09,59,6.10
2012,03,24,10,00,6.10
2012,03,24,10,01,6.10
2012,03,24,10,02,6.20
2012,03,24,10,03,6.20
2012,03,24,10,04,6.20
2012,03,24,10,05,6.20
2012,03,24,10,06,6.20
2012,03,24,10,07,6.30
2012,03,24,10,08,6.30
2012,03,24,10,09,6.30
2012,03,24,10,10,6.30
2012,03,24,10,11,6.30
2012,03,24,10,12,6.40
2012,03,24,10,13,6.40
2012,03,24,10,14,6.40
2012,03,24,10,15,6.40
2012,03,24,10,16,6.50
2012,03,24,10,17,6.50
2012,03,24,10,18,6.50
2012,03,24,10,19,6.50
2012,03,24,10,20,6.60
2012,03,24,10,21,6.60
2012,03,24,10,22,6.60
2012,03,24,10,23,6.60
2012,03,24,10,24,6.60
2012,03,24,10,25,6.70
2012,03,24,10,26,6.70
2012,03,24,10,27,6.70
2012,03,24,10,28,6.80
2012,03,24,10,29,6.80
2012,03,24,10,30,6.80
2012,03,24,10,31,6.80
2012,03,24,10,32,6.80
2012,03,24,10,33,6.80
2012,03,24,10,34,6.80
2012,03,24,10,35,6.90
2012,03,24,10,36,6.90
2012,03,24,10,37,6.90
2012,03,24,10,38,6.90
2012,03,24,10,39,6.90
2012,03,24,10,40,6.90
2012,03,24,10,41,7.00
2012,03,24,10,42,7.00
2012,03,24,10,43,7.10
2012,03,24,10,44,7.20
2012,03,24,10,45,7.20
2012,03,24,10,46,7.30
2012,03,24,10,47,7.30
2012,03,24,10,48,7.40
2012,03,24,10,49,7.40
2012,03,24,10,50,7.40
2012,03,24,10,51,7.40
2012,03,24,10,52,7.40
2012,03,24,10,53,7.40
2012,03,24,10,54,7.40
2012,03,24,10,55,7.40
2012,03,24,10,56,7.40
2012,03,24,10,57,7.40
2012,03,24,10,58,7.40
2012,03,24,10,59,7.40
2012,03,24,11,00,7.40
2012,03,24,11,01,7.50
2012,03,24,11,02,7.60
2012,03,24,11,03,7.70
2012,03,24,11,04,7.80
2012,03,24,11,05,7.80
2012,03,24,11,06,7.80
2012,03,24,11,07,7.80
2012,03,24,11,08,7.80
2012,03,24,11,09,7.80
2012,03,24,11,10,7.80
2012,03,24,11,11,7.70
2012,03,24,11,12,7.70
2012,03,24,11,13,7.70
2012,03,24,11,14,7.70
2012,03,24,11,15,7.70
2012,03,24,11,16,7.80
2012,03,24,11,17,7.80
2012,03,24,11,18,7.90
2012,03,24,11,19,7.90
2012,03,24,11,20,8.00
2012,03,24,11,21,8.00
2012,03,24,11,22,8.00
2012,03,24,11,23,8.00
2012,03,24,11,24,8.00
2012,03,24,11,25,8.10
2012,03,24,11,26,8.10
2012,03,24,11,27,8.10
2012,03,24,11,28,8.10
2012,03,24,11,29,8.10
2012,03,24,11,30,8.10
2012,03,24,11,31,8.20
2012,03,24,11,32,8.20
2012,03,24,11,33,8.30
2012,03,24,11,34,8.30
2012,03,24,11,35,8.30
2012,03,24,11,36,8.30
2012,03,24,11,37,8.30
2012,03,24,11,38,8.20
2012,03,24,11,39,8.20
2012,03,24,11,40,8.20
2012,03,24,11,41,8.20
2012,03,24,11,42,8.20
2012,03,24,11,43,8.20
2012,03,24,11,44,8.20
2012,03,24,11,45,8.20
2012,03,24,11,46,8.20
2012,03,24,11,47,8.20
2012,03,24,11,48,8.30
2012,03,24,11,49,8.30
2012,03,24,11,50,8.30
2012,03,24,11,51,8.40
2012,03,24,11,52,8.40
2012,03,24,11,53,8.40
2012,03,24,11,54,8.50
2012,03,24,11,55,8.50
2012,03,24,11,56,8.40
2012,03,24,11,57,8.40
2012,03,24,11,58,8.40
2012,03,24,11,59,8.40
2012,03,24,12,00,8.40
2012,03,24,12,01,8.40
2012,03,24,12,02,8.40
2012,03,24,12,03,8.40
2012,03,24,12,04,8.40
2012,03,24,12,05,8.40
2012,03,24,12,06,8.40
2012,03,24,12,07,8.40
2012,03,24,12,08,8.30
2012,03,24,12,09,8.30
2012,03,24,12,10,8.40
2012,03,24,12,11,8.40
2012,03,24,12,12,8.40
2012,03,24,12,13,8.50
2012,03,24,12,14,8.60
2012,03,24,12,15,8.60
2012,03,24,12,16,8.70
2012,03,24,12,17,8.70
2012,03,24,12,18,8.70
2012,03,24,12,19,8.80
2012,03,24,12,20,8.80
2012,03,24,12,21,8.80
2012,03,24,12,22,8.80
2012,03,24,12,23,8.90
2012,03,24,12,24,9.00
2012,03,24,12,25,9.00
2012,03,24,12,26,9.10
2012,03,24,12,27,9.10
2012,03,24,12,28,9.10
2012,03,24,12,29,9.10
2012,03,24,12,30,9.00
2012,03,24,12,31,9.00
2012,03,24,12,32,9.00
2012,03,24,12,33,9.10
2012,03,24,12,34,9.10
2012,03,24,12,35,9.10
2012,03,24,12,36,9.20
2012,03,24,12,37,9.20
2012,03,24,12,38,9.30
2012,03,24,12,39,9.30
2012,03,24,12,40,9.30
2012,03,24,12,41,9.30
2012,03,24,12,42,9.20
2012,03,24,12,43,9.10
2012,03,24,12,44,9.10
2012,03,24,12,45,9.10
2012,03,24,12,46,9.00
2012,03,24,12,47,8.90
2012,03,24,12,48,8.80
2012,03,24,12,49,8.80
2012,03,24,12,50,8.80
2012,03,24,12,51,8.80
2012,03,24,12,52,8.80
2012,03,24,12,53,8.90
2012,03,24,12,54,8.90
2012,03,24,12,55,9.00
2012,03,24,12,56,9.10
2012,03,24,12,57,9.10
2012,03,24,12,58,9.10
2012,03,24,12,59,9.10
2012,03,24,13,00,9.10
2012,03,24,13,01,9.10
2012,03,24,13,02,9.10
2012,03,24,13,03,9.10
2012,03,24,13,04,9.10
2012,03,24,13,05,9.20
2012,03,24,13,06,9.20
2012,03,24,13,07,9.20
2012,03,24,13,08,9.20
2012,03,24,13,09,9.10
2012,03,24,13,10,9.00
2012,03,24,13,11,9.00
2012,03,24,13,12,8.90
2012,03,24,13,13,8.90
2012,03,24,13,14,8.90
2012,03,24,13,15,8.90
2012,03,24,13,16,8.90
2012,03,24,13,17,8.90
2012,03,24,13,18,8.90
2012,03,24,13,19,8.90
2012,03,24,13,20,8.90
2012,03,24,13,21,8.90
2012,03,24,13,22,9.00
2012,03,24,13,23,9.00
2012,03,24,13,24,9.00
2012,03,24,13,25,9.10
2012,03,24,13,26,9.10
2012,03,24,13,27,9.20
2012,03,24,13,28,9.20
2012,03,24,13,29,9.20
2012,03,24,13,30,9.10
2012,03,24,13,31,9.10
2012,03,24,13,32,9.10
2012,03,24,13,33,9.10
2012,03,24,13,34,9.10
2012,03,24,13,35,9.00
2012,03,24,13,36,9.00
2012,03,24,13,37,9.00
2012,03,24,13,38,9.10
2012,03,24,13,39,9.10
2012,03,24,13,40,9.20
2012,03,24,13,41,9.20
2012,03,24,13,42,9.20
2012,03,24,13,43,9.20
2012,03,24,13,44,9.20
2012,03,24,13,45,9.20
2012,03,24,13,46,9.20
2012,03,24,13,47,9.20
2012,03,24,13,48,9.20
2012,03,24,13,49,9.10
2012,03,24,13,50,9.10
2012,03,24,13,51,9.10
2012,03,24,13,52,9.10
2012,03,24,13,53,9.10
2012,03,24,13,54,9.10
2012,03,24,13,55,9.10
2012,03,24,13,56,9.20
2012,03,24,13,57,9.20
2012,03,24,13,58,9.20
2012,03,24,13,59,9.20
2012,03,24,14,00,9.20
2012,03,24,14,01,9.20
2012,03,24,14,02,9.20
2012,03,24,14,03,9.20
2012,03,24,14,04,9.30
2012,03,24,14,05,9.30
2012,03,24,14,06,9.40
2012,03,24,14,07,9.40
2012,03,24,14,08,9.40
2012,03,24,14,09,9.40
2012,03,24,14,10,9.40
2012,03,24,14,11,9.40
2012,03,24,14,12,9.50
2012,03,24,14,13,9.50
2012,03,24,14,14,9.60
2012,03,24,14,15,9.60
2012,03,24,14,16,9.60
2012,03,24,14,17,9.60
2012,03,24,14,18,9.70
2012,03,24,14,19,9.70
2012,03,24,14,20,9.70
2012,03,24,14,21,9.70
2012,03,24,14,22,9.70
2012,03,24,14,23,9.80
2012,03,24,14,24,9.80
2012,03,24,14,25,9.80
2012,03,24,14,26,9.80
2012,03,24,14,27,9.80
2012,03,24,14,28,9.90
2012,03,24,14,29,9.90
2012,03,24,14,30,10.00
2012,03,24,14,31,10.00
2012,03,24,14,32,10.10
2012,03,24,14,33,10.10
2012,03,24,14,34,10.20
2012,03,24,14,35,10.20
2012,03,24,14,36,10.20
2012,03,24,14,37,10.20
2012,03,24,14,38,10.20
2012,03,24,14,39,10.10
2012,03,24,14,40,10.00
2012,03,24,14,41,9.90
2012,03,24,14,42,9.80
2012,03,24,14,43,9.90
2012,03,24,14,44,9.90
2012,03,24,14,45,9.90
2012,03,24,14,46,9.90
2012,03,24,14,47,10.00
2012,03,24,14,48,10.10
2012,03,24,14,49,10.10
2012,03,24,14,50,10.10
2012,03,24,14,51,10.20
2012,03,24,14,52,10.20
2012,03,24,14,53,10.20
2012,03,24,14,54,10.20
2012,03,24,14,55,10.20
2012,03,24,14,56,10.20
2012,03,24,14,57,10.20
2012,03,24,14,58,10.20
2012,03,24,14,59,10.30
2012,03,24,15,00,10.20
2012,03,24,15,01,10.20
2012,03,24,15,02,10.20
2012,03,24,15,03,10.20
2012,03,24,15,04,10.20
2012,03,24,15,05,10.20
2012,03,24,15,06,10.20
2012,03,24,15,07,10.30
2012,03,24,15,08,10.30
2012,03,24,15,09,10.40
2012,03,24,15,10,10.50
2012,03,24,15,11,10.50
2012,03,24,15,12,10.60
2012,03,24,15,13,10.60
2012,03,24,15,14,10.60
2012,03,24,15,15,10.70
2012,03,24,15,16,10.70
2012,03,24,15,17,10.70
2012,03,24,15,18,10.80
2012,03,24,15,19,10.90
2012,03,24,15,20,11.00
2012,03,24,15,21,11.10
2012,03,24,15,22,11.20
2012,03,24,15,23,11.20
2012,03,24,15,24,11.30
2012,03,24,15,25,11.30
2012,03,24,15,26,11.30
2012,03,24,15,27,11.20
2012,03,24,15,28,11.20
2012,03,24,15,29,11.20
2012,03,24,15,30,11.20
2012,03,24,15,31,11.30
2012,03,24,15,32,11.30
2012,03,24,15,33,11.30
2012,03,24,15,34,11.40
2012,03,24,15,35,11.40
2012,03,24,15,36,11.40
2012,03,24,15,37,11.40
2012,03,24,15,38,11.40
2012,03,24,15,39,11.30
2012,03,24,15,40,11.30
2012,03,24,15,41,11.30
2012,03,24,15,42,11.20
2012,03,24,15,43,11.30
2012,03,24,15,44,11.30
2012,03,24,15,45,11.30
2012,03,24,15,46,11.30
2012,03,24,15,47,11.30
2012,03,24,15,48,11.30
2012,03,24,15,49,11.30
2012,03,24,15,50,11.20
2012,03,24,15,51,11.20
2012,03,24,15,52,11.20
2012,03,24,15,53,11.20
2012,03,24,15,54,11.30
2012,03,24,15,55,11.40
2012,03,24,15,56,11.50
2012,03,24,15,57,11.60
2012,03,24,15,58,11.70
2012,03,24,15,59,11.70
2012,03,24,16,00,11.70
2012,03,24,16,01,11.70
2012,03,24,16,02,11.70
2012,03,24,16,03,11.80
2012,03,24,16,04,11.80
2012,03,24,16,05,11.80
2012,03,24,16,06,11.90
2012,03,24,16,07,11.90
2012,03,24,16,08,11.90
2012,03,24,16,09,11.90
2012,03,24,16,10,11.90
2012,03,24,16,11,11.90
2012,03,24,16,12,11.90
2012,03,24,16,13,11.90
2012,03,24,16,14,11.90
2012,03,24,16,15,11.90
2012,03,24,16,16,11.90
2012,03,24,16,17,11.90
2012,03,24,16,18,11.90
2012,03,24,16,19,11.90
2012,03,24,16,20,11.90
2012,03,24,16,21,11.90
2012,03,24,16,22,11.90
2012,03,24,16,23,11.80
2012,03,24,16,24,11.80
2012,03,24,16,25,11.80
2012,03,24,16,26,11.80
2012,03,24,16,27,11.80
2012,03,24,16,28,11.80
2012,03,24,16,29,11.80
2012,03,24,16,30,11.80
2012,03,24,16,31,11.80
2012,03,24,16,32,11.80
2012,03,24,16,33,11.80
2012,03,24,16,34,11.90
2012,03,24,16,35,11.90
2012,03,24,16,36,12.00
2012,03,24,16,37,12.10
2012,03,24,16,38,12.10
2012,03,24,16,39,12.10
2012,03,24,16,40,12.10
2012,03,24,16,41,12.00
2012,03,24,16,42,11.90
2012,03,24,16,43,11.80
2012,03,24,16,44,11.80
2012,03,24,16,45,11.80
2012,03,24,16,46,11.80
2012,03,24,16,47,11.90
2012,03,24,16,48,12.00
2012,03,24,16,49,12.00
2012,03,24,16,50,12.10
2012,03,24,16,51,12.10
2012,03,24,16,52,12.20
2012,03,24,16,53,12.20
2012,03,24,16,54,12.30
2012,03,24,16,55,12.30
2012,03,24,16,56,12.30
2012,03,24,16,57,12.10
2012,03,24,16,58,12.00
2012,03,24,16,59,11.80
2012,03,24,17,00,11.80
2012,03,24,17,01,11.70
2012,03,24,17,02,11.70
2012,03,24,17,03,11.70
2012,03,24,17,04,11.70
2012,03,24,17,05,11.60
2012,03,24,17,06,11.70
2012,03,24,17,07,11.70
2012,03,24,17,08,11.70
2012,03,24,17,09,11.70
2012,03,24,17,10,11.70
2012,03,24,17,11,11.60
2012,03,24,17,12,11.60
2012,03,24,17,13,11.50
2012,03,24,17,14,11.50
2012,03,24,17,15,11.40
2012,03,24,17,16,11.30
2012,03,24,17,17,11.20
2012,03,24,17,18,11.20
2012,03,24,17,19,11.20
2012,03,24,17,20,11.20
2012,03,24,17,21,11.20
2012,03,24,17,22,11.20
2012,03,24,17,23,11.20
2012,03,24,17,24,11.10
2012,03,24,17,25,11.10
2012,03,24,17,26,11.00
2012,03,24,17,27,11.00
2012,03,24,17,28,11.00
2012,03,24,17,29,11.10
2012,03,24,17,30,11.10
2012,03,24,17,31,11.10
2012,03,24,17,32,11.10
2012,03,24,17,33,11.10
2012,03,24,17,34,11.10
2012,03,24,17,35,11.10
2012,03,24,17,36,11.10
2012,03,24,17,37,11.10
2012,03,24,17,38,11.10
2012,03,24,17,39,11.10
2012,03,24,17,40,11.10
2012,03,24,17,41,11.10
2012,03,24,17,42,11.10
2012,03,24,17,43,11.10
2012,03,24,17,44,11.00
2012,03,24,17,45,11.00
2012,03,24,17,46,10.90
2012,03,24,17,47,10.80
2012,03,24,17,48,10.80
2012,03,24,17,49,10.70
2012,03,24,17,50,10.60
2012,03,24,17,51,10.60
2012,03,24,17,52,10.60
2012,03,24,17,53,10.60
2012,03,24,17,54,10.60
2012,03,24,17,55,10.70
2012,03,24,17,56,10.70
2012,03,24,17,57,10.80